Date String (YYYY-MM-DD hh:mm:ss) UTC,Instrument flags,absolute air pressure of the measurement (hPa),sample flow rate (lpm),inlet stack bypass flow (lpm),air temperature of the measurement (°C),ambient temperature measured by the external sensor (°C),aerosol sample conditioner tube jacket temperature (°C),OPC LED temperature (°C),internal box temperature (°C),relative humidity of the measurement (%),span deviation,mass concentration of particles derived from Lorenz-Mie calculation of OPC scattering (μg/m³),mass concentration of particles derived from Lorenz-Mie calculation of OPC scattering (μg/m³),mass concentration of particles derived from Lorenz-Mie calculation of OPC scattering (μg/m³)
DateTimeUTC,F1_M11,P_M11,Q1_M11,Q2_M11,T1_M11,T2_M11,T3_M11,T4_M11,T5_M11,U1_M11,ZSPAN_M11,X2_M11,X0_M11,X1_M11
2023-07-15 09:00:00,SystemResetWarning,0835.5,5.00,000.00,029.8,028.6,000.0,038.2,031.3,31.7,0000.0,0006.32,0012.21,0005.40
2023-07-15 09:01:00,SystemResetWarning,0835.5,4.99,000.00,029.8,028.6,000.0,038.2,031.4,31.6,0000.0,0006.30,0011.85,0005.39
2023-07-15 09:02:00,SystemResetWarning,0835.5,5.02,000.00,029.8,028.6,000.0,038.2,031.4,31.6,0000.0,0006.32,0011.82,0005.38
2023-07-15 09:03:00,SystemResetWarning,0835.5,5.00,000.00,029.8,028.6,000.0,038.2,031.4,31.6,0000.0,0006.32,0011.99,0005.37
2023-07-15 09:04:00,SystemResetWarning,0835.5,4.98,000.00,029.8,027.0,000.0,038.1,031.2,31.5,0000.0,0006.28,0012.05,0005.36
2023-07-15 09:05:00,SystemResetWarning,0835.5,5.01,000.00,029.7,025.5,000.0,038.0,031.0,31.5,0000.0,0006.27,0012.19,0005.36
2023-07-15 09:06:00,SystemResetWarning,0835.4,5.02,000.00,029.6,025.1,000.0,038.0,030.7,32.2,0000.0,0006.27,0011.91,0005.36
2023-07-15 09:07:00,SystemResetWarning,0835.5,5.00,000.00,029.5,025.4,000.0,038.0,030.6,32.1,0000.0,0006.26,0013.45,0005.34
2023-07-15 09:08:00,SystemResetWarning,0835.5,5.00,000.00,029.4,025.8,000.0,038.0,030.6,32.4,0000.0,0006.23,0013.59,0005.30
2023-07-15 09:09:00,SystemResetWarning,0835.5,5.00,000.00,029.4,026.2,000.0,038.0,030.7,32.3,-000.1,0006.20,0013.43,0005.28
2023-07-15 09:10:00,SystemResetWarning,0835.5,5.00,000.00,029.4,026.6,000.0,038.0,030.8,32.1,0000.0,0006.12,0012.93,0005.26
2023-07-15 09:11:00,SystemResetWarning,0835.5,5.01,000.00,029.4,026.9,000.0,038.0,030.8,32.1,0000.0,0006.11,0012.99,0005.24
2023-07-15 09:12:00,SystemResetWarning,0835.5,5.00,000.00,029.4,027.2,000.0,038.0,030.9,32.5,-000.0,0006.10,0013.03,0005.22
2023-07-15 09:13:00,SystemResetWarning,0835.5,4.99,000.00,029.4,027.4,000.0,038.0,030.9,32.1,-000.1,0006.07,0013.03,0005.21
2023-07-15 09:14:00,SystemResetWarning,0835.5,5.00,000.00,029.4,027.6,000.0,038.0,030.9,32.1,-000.0,0006.01,0012.87,0005.18
2023-07-15 09:15:00,SystemResetWarning,0835.5,5.01,000.00,029.4,027.8,000.0,038.0,031.0,31.8,0000.0,0006.05,0012.75,0005.17
2023-07-15 09:16:00,SystemResetWarning,0835.5,5.00,000.00,029.4,027.9,000.0,038.0,031.0,31.7,0000.0,0006.03,0012.52,0005.17
2023-07-15 09:17:00,SystemResetWarning,0835.5,5.00,000.00,029.5,028.0,000.0,038.0,031.0,31.7,0000.0,0005.99,0012.07,0005.16
2023-07-15 09:18:00,SystemResetWarning,0835.5,4.99,000.00,029.5,028.1,000.0,038.0,031.0,31.4,0000.0,0005.96,0010.70,0005.16
2023-07-15 09:19:00,SystemResetWarning,0835.5,4.99,000.00,029.5,028.1,000.0,038.0,031.1,31.5,0000.0,0005.97,0010.67,0005.17
2023-07-15 09:20:00,SystemResetWarning,0835.5,5.02,000.00,029.5,028.2,000.0,038.0,031.1,31.4,0000.0,0005.96,0011.33,0005.17
2023-07-15 09:21:00,SystemResetWarning,0835.5,5.01,000.00,029.6,028.3,000.0,038.0,031.2,31.4,0000.0,0006.01,0011.88,0005.18
2023-07-15 09:22:00,SystemResetWarning,0835.5,4.99,000.00,029.6,028.3,000.0,038.1,031.2,31.4,0000.0,0006.01,0011.92,0005.18
2023-07-15 09:23:00,SystemResetWarning,0835.5,4.99,000.00,029.6,028.4,000.0,038.1,031.2,31.3,0000.0,0006.03,0011.95,0005.18
2023-07-15 09:24:00,SystemResetWarning,0835.5,5.00,000.00,029.6,028.4,000.0,038.1,031.2,31.2,0000.0,0006.03,0011.84,0005.18
2023-07-15 09:25:00,SystemResetWarning,0835.5,4.99,000.00,029.7,028.5,000.0,038.1,031.3,31.1,0000.0,0006.03,0011.77,0005.18
2023-07-15 09:26:00,SystemResetWarning,0835.5,5.00,000.00,029.7,028.5,000.0,038.1,031.3,31.1,0000.0,0005.98,0011.70,0005.18
2023-07-15 09:27:00,SystemResetWarning,0835.5,5.02,000.00,029.7,028.5,000.0,038.1,031.3,31.0,0000.0,0005.96,0011.86,0005.16
2023-07-15 09:28:00,SystemResetWarning,0835.5,5.00,000.00,029.7,028.5,000.0,038.2,031.3,31.0,0000.0,0005.96,0011.94,0005.14
2023-07-15 09:29:00,SystemResetWarning,0835.5,4.99,000.00,029.7,028.5,000.0,038.2,031.4,30.9,0000.0,0005.93,0011.56,0005.12
2023-07-15 09:30:00,SystemResetWarning,0835.5,5.00,000.00,029.8,028.6,000.0,038.2,031.4,30.9,0000.1,0005.91,0011.17,0005.10
2023-07-15 09:31:00,SystemResetWarning,0835.4,5.00,000.00,029.8,028.6,000.0,038.2,031.4,30.8,-000.6,0005.92,0010.61,0005.11
2023-07-15 09:32:00,SystemResetWarning,0835.4,5.00,000.00,029.8,028.6,000.0,038.3,031.4,30.8,-000.8,0005.93,0010.10,0005.11
2023-07-15 09:33:00,SystemResetWarning,0835.5,4.99,000.00,029.8,028.6,000.0,038.3,031.4,30.8,-000.7,0005.89,0009.96,0005.10
2023-07-15 09:34:00,SystemResetWarning,0835.4,4.98,000.00,029.9,028.7,000.0,038.3,031.4,30.7,-000.8,0005.83,0009.88,0005.09
2023-07-15 09:35:00,SystemResetWarning,0835.4,5.02,000.00,029.9,028.7,000.0,038.3,031.5,30.6,-000.6,0005.80,0010.19,0005.08
2023-07-15 09:36:00,SystemResetWarning,0835.4,5.00,000.00,029.9,028.7,000.0,038.3,031.5,30.6,-001.5,0005.78,0010.12,0005.07
2023-07-15 09:37:00,SystemResetWarning,0835.5,4.99,000.00,029.9,028.7,000.0,038.3,031.5,30.5,-001.8,0005.76,0009.96,0005.04
2023-07-15 09:38:00,SystemResetWarning,0835.4,4.98,000.00,029.9,027.4,000.0,038.3,031.4,30.5,-001.4,0005.75,0009.87,0005.03
2023-07-15 09:39:00,SystemResetWarning,0835.3,5.01,000.00,029.8,025.7,000.0,038.1,031.1,30.6,-001.5,0005.72,0010.61,0005.04
2023-07-15 09:40:00,SystemResetWarning,0835.3,5.01,000.00,029.7,025.2,000.0,038.1,030.8,30.8,-002.2,0005.72,0010.82,0005.04
2023-07-15 09:41:00,SystemResetWarning,0835.3,5.00,000.00,029.6,025.4,000.0,038.1,030.6,31.1,-000.5,0005.68,0011.06,0005.03
2023-07-15 09:42:00,SystemResetWarning,0835.3,4.99,000.00,029.5,025.8,000.0,038.1,030.7,31.3,-000.9,0005.66,0011.11,0005.01
2023-07-15 09:43:00,SystemResetWarning,0835.2,5.00,000.00,029.5,026.2,000.0,038.1,030.8,31.4,0000.0,0005.72,0011.26,0005.00
2023-07-15 09:44:00,SystemResetWarning,0835.2,4.99,000.00,029.5,026.6,000.0,038.1,030.8,31.4,0000.0,0005.76,0011.38,0005.01
2023-07-15 09:45:00,SystemResetWarning,0835.3,5.00,000.00,029.5,026.9,000.0,038.1,030.9,31.5,0000.0,0005.80,0011.60,0005.01
2023-07-15 09:46:00,SystemResetWarning,0835.3,5.00,000.00,029.5,027.2,000.0,038.1,030.9,31.5,-000.6,0005.82,0011.77,0005.02
2023-07-15 09:47:00,SystemResetWarning,0835.3,5.01,000.00,029.5,027.4,000.0,038.1,030.9,31.4,-000.6,0005.86,0012.41,0005.02
2023-07-15 09:48:00,SystemResetWarning,0835.3,5.01,000.00,029.5,027.6,000.0,038.1,031.0,31.4,-000.2,0005.88,0012.62,0005.03
2023-07-15 09:49:00,SystemResetWarning,0835.3,4.99,000.00,029.5,027.8,000.0,038.1,031.0,31.4,-000.0,0005.88,0012.70,0005.05
2023-07-15 09:50:00,SystemResetWarning,0835.2,4.99,000.00,029.5,027.9,000.0,038.1,031.1,31.4,-000.1,0005.91,0011.91,0005.08
2023-07-15 09:51:00,SystemResetWarning,0835.3,5.01,000.00,029.5,028.0,000.0,038.1,031.1,31.4,0000.4,0005.93,0011.62,0005.08
2023-07-15 09:52:00,SystemResetWarning,0835.4,5.00,000.00,029.5,028.1,000.0,038.1,031.1,31.5,0001.3,0005.99,0011.80,0005.10
2023-07-15 09:53:00,SystemResetWarning,0835.3,5.00,000.00,029.6,028.1,000.0,038.1,031.1,31.3,0001.3,0006.05,0011.76,0005.13
2023-07-15 09:54:00,SystemResetWarning,0835.3,5.01,000.00,029.6,028.2,000.0,038.1,031.2,31.2,0001.0,0005.98,0011.50,0005.16
2023-07-15 09:55:00,SystemResetWarning,0835.4,5.01,000.00,029.6,028.3,000.0,038.1,031.2,31.2,0000.5,0005.97,0011.39,0005.16
2023-07-15 09:56:00,SystemResetWarning,0835.3,5.00,000.00,029.6,028.3,000.0,038.1,031.2,31.0,0000.0,0005.94,0011.17,0005.17
2023-07-15 09:57:00,SystemResetWarning,0835.3,4.99,000.00,029.7,028.4,000.0,038.1,031.3,31.0,-000.0,0005.96,0011.30,0005.18
2023-07-15 09:58:00,SystemResetWarning,0835.4,5.01,000.00,029.7,028.4,000.0,038.2,031.3,30.9,0000.0,0005.99,0010.96,0005.20
2023-07-15 09:59:00,SystemResetWarning,0835.3,5.01,000.00,029.7,028.5,000.0,038.2,031.3,30.9,-000.2,0006.01,0011.56,0005.22
